Location: Hope
(40.9110°N, 74.9680°W)
Time: 19:45:34
(UTC-05:00)

N. Korean satellite - Pass Details

Date: 30 January 2019
Orbit: 457 x 510 km, 97.2° (Epoch: 18 February)

Event Time Altitude Azimuth Distance (km) Brightness Sun altitude
Rises 05:11:25 0° 33° (NNE) 2,583 10.6 -23.0°
Reaches altitude 10° 05:14:27 10° 61° (ENE) 1,681 10.1 -22.4°
Maximum altitude 05:16:16 13° 91° (E) 1,469 10.0 -22.1°
Drops below altitude 10° 05:18:05 10° 122° (ESE) 1,657 10.1 -21.7°
Sets 05:21:01 0° 150° (SSE) 2,516 10.7 -21.2°
